Simultaneous Nadir Overpasses (SNOs) Predictions

Prediction of SNOs between LANDSAT-8 and NPP Satellite Orbit:

Table of predicted SNOs for the next 14.0 days since TLE Epoch: 9/26/2014
Index Date (LANDSAT-8) Time (LANDSAT-8) Lat,Lon (LANDSAT-8) SZA (LANDSAT-8 ) Date (NPP) Time (NPP) Lat,Lon (NPP) SZA (NPP ) Distance(km) Time Diff (sec)
1 09/27/2014 01:12:10 70.83, 159.47 72.26 09/27/2014 01:11:22 70.84, 159.39 72.27 2.86 48
2 09/27/2014 02:01:40 -70.73, -33.06 107.83 09/27/2014 02:02:03 -70.71, -33.08 107.85 2.32 23
3 09/29/2014 17:28:44 70.79, -84.74 73.26 09/29/2014 17:28:17 70.79, -84.76 73.26 0.80 27
4 09/29/2014 18:18:14 -70.69, 82.75 106.83 09/29/2014 18:18:59 -70.71, 82.69 106.81 3.07 45
5 10/02/2014 08:55:47 -71.23,-135.84 105.28 10/02/2014 08:54:36 -71.28,-137.13 105.22 46.46 71
6 10/02/2014 09:45:21 70.74, 31.04 74.25 10/02/2014 09:45:12 70.75, 31.09 74.26 1.74 9
7 10/02/2014 10:34:51 -70.65,-161.47 105.84 10/02/2014 10:35:54 -70.66,-161.46 105.82 2.01 63
8 10/05/2014 01:12:32 -70.85, -20.60 104.62 10/05/2014 01:11:22 -70.83, -20.58 104.65 2.49 70
9 10/05/2014 02:01:59 70.74, 146.88 75.29 10/05/2014 02:02:07 70.76, 146.84 75.31 2.71 8
10 10/05/2014 02:51:33 -70.43, -45.95 105.02 10/05/2014 02:52:44 -70.41, -45.28 105.03 24.90 71
11 10/07/2014 17:29:14 -70.84, 95.22 103.60 10/07/2014 17:28:18 -70.84, 95.17 103.60 1.87 56
12 10/07/2014 18:18:41 70.74, -97.30 76.31 10/07/2014 18:19:02 70.73, -97.34 76.30 1.80 21
13 10/07/2014 19:08:24 -69.94, 69.17 104.48 10/07/2014 19:09:31 -69.96, 71.20 104.46 77.47 67
14 10/10/2014 09:45:59 -70.83,-148.98 102.59 10/10/2014 09:45:13 -70.81,-149.01 102.61 2.53 46
15 10/10/2014 10:35:26 70.73, 18.50 77.32 10/10/2014 10:35:57 70.70, 18.48 77.30 3.07 31




NCC Satellite Simultaneous Nadir Overpasses (SNOs) Prediction Service
